TimeCDT,TemperatureF,Dew PointF,Humidity,Sea Level PressureIn,VisibilityMPH,Wind Direction,Wind SpeedMPH,Gust SpeedMPH,PrecipitationIn,Events,Conditions,WindDirDegrees,DateUTC
12:15 AM,47.3,46.2,96,29.15,7.0,West,12.7,18.4,0.02,,Overcast,260,2013-11-01 05:15:00
1:04 AM,46.4,46.4,100,29.16,7.0,West,13.8,18.4,0.01,,Overcast,270,2013-11-01 06:04:00
1:15 AM,46.8,45.9,97,29.16,7.0,West,12.7,-,0.02,,Overcast,270,2013-11-01 06:15:00
2:39 AM,46.4,44.6,93,29.20,7.0,West,11.5,-,0.05,,Overcast,260,2013-11-01 07:39:00
3:04 AM,46.4,44.6,93,29.21,7.0,West,10.4,-,N/A,,Overcast,260,2013-11-01 08:04:00
4:35 AM,46.4,45.5,97,29.24,10.0,WNW,6.9,-,N/A,,Overcast,290,2013-11-01 09:35:00
4:55 AM,46.8,45.3,95,29.26,10.0,WNW,6.9,16.1,N/A,,Overcast,290,2013-11-01 09:55:00
5:15 AM,46.6,45.0,94,29.28,10.0,West,8.1,-,N/A,,Overcast,280,2013-11-01 10:15:00
5:35 AM,46.6,45.1,95,29.29,10.0,WNW,6.9,-,N/A,,Overcast,290,2013-11-01 10:35:00
5:55 AM,46.4,44.6,93,29.31,10.0,West,8.1,-,N/A,,Overcast,280,2013-11-01 10:55:00
6:15 AM,46.2,44.1,92,29.32,10.0,West,8.1,-,N/A,,Overcast,270,2013-11-01 11:15:00
6:35 AM,45.9,43.9,93,29.33,10.0,WNW,6.9,-,N/A,,Overcast,290,2013-11-01 11:35:00
6:55 AM,45.9,43.7,92,29.34,10.0,WNW,5.8,-,N/A,,Overcast,290,2013-11-01 11:55:00
7:15 AM,45.5,43.3,92,29.35,10.0,West,8.1,-,N/A,,Overcast,270,2013-11-01 12:15:00
7:35 AM,45.3,43.5,93,29.36,10.0,West,4.6,-,N/A,,Overcast,270,2013-11-01 12:35:00
7:55 AM,45.5,43.7,93,29.37,10.0,West,6.9,-,N/A,,Overcast,280,2013-11-01 12:55:00
8:15 AM,45.9,43.3,91,29.39,10.0,WNW,5.8,-,N/A,,Overcast,290,2013-11-01 13:15:00
8:35 AM,46.0,43.7,92,29.41,10.0,WNW,5.8,-,N/A,,Overcast,290,2013-11-01 13:35:00
8:55 AM,46.4,42.6,87,29.41,10.0,WNW,5.8,-,N/A,,Overcast,300,2013-11-01 13:55:00
9:15 AM,46.4,42.1,85,29.42,10.0,WNW,5.8,-,N/A,,Overcast,290,2013-11-01 14:15:00
9:35 AM,47.1,42.6,84,29.43,10.0,West,9.2,-,N/A,,Overcast,270,2013-11-01 14:35:00
9:55 AM,47.5,42.4,83,29.43,10.0,WNW,6.9,-,N/A,,Overcast,290,2013-11-01 14:55:00
10:15 AM,47.5,41.9,81,29.44,10.0,WNW,6.9,-,N/A,,Overcast,290,2013-11-01 15:15:00
10:35 AM,47.3,42.1,82,29.45,10.0,WNW,9.2,-,N/A,,Overcast,290,2013-11-01 15:35:00
10:55 AM,47.3,41.7,81,29.46,10.0,WNW,5.8,-,N/A,,Overcast,300,2013-11-01 15:55:00
11:15 AM,47.5,41.9,81,29.46,10.0,WNW,8.1,-,N/A,,Overcast,290,2013-11-01 16:15:00
11:35 AM,47.5,42.1,82,29.47,10.0,WNW,8.1,-,N/A,,Overcast,290,2013-11-01 16:35:00
11:55 AM,47.8,42.1,80,29.48,10.0,WNW,5.8,-,N/A,,Overcast,300,2013-11-01 16:55:00
12:15 PM,48.2,41.5,78,29.48,10.0,WNW,6.9,-,N/A,,Overcast,300,2013-11-01 17:15:00
12:35 PM,48.0,41.2,77,29.49,10.0,NW,9.2,-,N/A,,Overcast,320,2013-11-01 17:35:00
12:55 PM,47.3,41.2,79,29.49,10.0,NNW,6.9,-,N/A,,Overcast,330,2013-11-01 17:55:00
1:15 PM,46.6,40.6,80,29.50,10.0,NNW,4.6,-,N/A,,Overcast,340,2013-11-01 18:15:00
1:35 PM,46.4,40.5,80,29.50,10.0,North,6.9,-,N/A,,Overcast,350,2013-11-01 18:35:00
1:55 PM,46.4,39.9,78,29.51,10.0,NNW,4.6,-,N/A,,Overcast,330,2013-11-01 18:55:00
2:15 PM,46.4,39.7,78,29.52,10.0,NW,5.8,-,N/A,,Overcast,320,2013-11-01 19:15:00
2:35 PM,46.4,39.9,78,29.53,10.0,NW,3.5,-,N/A,,Overcast,320,2013-11-01 19:35:00
2:55 PM,46.4,39.6,77,29.54,10.0,NNW,5.8,-,N/A,,Overcast,330,2013-11-01 19:55:00
3:15 PM,46.0,40.3,80,29.54,10.0,North,4.6,-,N/A,,Overcast,350,2013-11-01 20:15:00
5:15 PM,44.2,43.0,95,29.59,10.0,Calm,Calm,-,N/A,,Overcast,0,2013-11-01 22:15:00
5:35 PM,44.1,43.0,96,29.60,10.0,Calm,Calm,-,N/A,,Overcast,0,2013-11-01 22:35:00
5:55 PM,43.7,42.8,97,29.61,10.0,Calm,Calm,-,N/A,,Overcast,0,2013-11-01 22:55:00
6:15 PM,43.7,42.6,96,29.62,10.0,Calm,Calm,-,N/A,,Overcast,0,2013-11-01 23:15:00
6:35 PM,43.7,41.4,91,29.63,10.0,Calm,Calm,-,N/A,,Overcast,0,2013-11-01 23:35:00
6:55 PM,42.4,41.9,98,29.64,10.0,Calm,Calm,-,N/A,,Overcast,0,2013-11-01 23:55:00
7:15 PM,43.0,40.8,92,29.64,10.0,Calm,Calm,-,N/A,,Overcast,0,2013-11-02 00:15:00
7:35 PM,41.5,41.0,98,29.65,7.0,Calm,Calm,-,N/A,,Overcast,0,2013-11-02 00:35:00
7:55 PM,41.2,41.0,99,29.66,7.0,Calm,Calm,-,N/A,,Overcast,0,2013-11-02 00:55:00
8:15 PM,42.1,40.1,93,29.66,10.0,Calm,Calm,-,N/A,,Overcast,0,2013-11-02 01:15:00
8:35 PM,42.4,39.6,90,29.66,10.0,Calm,Calm,-,N/A,,Overcast,0,2013-11-02 01:35:00
8:55 PM,42.8,38.8,86,29.68,10.0,Calm,Calm,-,N/A,,Overcast,0,2013-11-02 01:55:00
9:15 PM,42.8,38.5,85,29.68,10.0,Calm,Calm,-,N/A,,Overcast,0,2013-11-02 02:15:00
9:35 PM,42.4,38.3,85,29.69,10.0,North,3.5,-,N/A,,Overcast,350,2013-11-02 02:35:00
9:55 PM,42.3,38.3,86,29.70,10.0,North,3.5,-,N/A,,Overcast,350,2013-11-02 02:55:00
10:15 PM,42.1,38.5,87,29.70,10.0,Calm,Calm,-,N/A,,Overcast,0,2013-11-02 03:15:00
10:35 PM,42.1,38.5,87,29.71,10.0,Calm,Calm,-,N/A,,Overcast,0,2013-11-02 03:35:00
10:55 PM,41.5,38.7,89,29.71,10.0,Calm,Calm,-,N/A,,Overcast,0,2013-11-02 03:55:00
11:15 PM,41.4,39.0,91,29.71,10.0,Calm,Calm,-,N/A,,Overcast,0,2013-11-02 04:15:00
11:35 PM,41.2,39.0,92,29.71,10.0,Calm,Calm,-,N/A,,Overcast,0,2013-11-02 04:35:00
11:55 PM,41.2,38.8,91,29.72,10.0,NNW,3.5,-,N/A,,Overcast,340,2013-11-02 04:55:00